Battle Mountain, Nevada, United States (89820)
Lat: 40.64N, Lon: 116.93W
Wx Zone: NVZ036
Local Info
Past Weather Observations for Saturday, April 19, 2014

NOTE: This archive is for the closest National Weather Service station to Battle Mountain. Information may differ from the station used for current weather conditions.

Time Weather Temperature Dewpoint Humidity Pressure Winds Precip Visibility
23:56
Clear
52°F / 11°C 25°F / -4°C 35% 30.15 in
(1021 mb)
NNW 5.8 mph
(NNW 9 kph)
- 10SM
22:56
Clear
52°F / 11°C 19°F / -7°C 28% 30.12 in
(1020 mb)
WNW 8.1 mph
(WNW 13 kph)
- 10SM
21:56
Clear
54°F / 12°C 21°F / -6°C 28% 30.09 in
(1019 mb)
SSE 6.9 mph
(SSE 11 kph)
- 10SM
20:56
Clear
55°F / 13°C 18°F / -8°C 23% 30.06 in
(1018 mb)
ENE 3.5 mph
(ENE 6 kph)
- 10SM
19:56
Clear
57°F / 14°C 18°F / -8°C 21% 30.04 in
(1017 mb)
SSW 10.4 mph
(SSW 17 kph)
- 10SM
18:56
Clear
61°F / 16°C 19°F / -7°C 20% 29.98 in
(1015 mb)
SW 10.4 mph
(SW 17 kph)
- 10SM
17:56
Clear
68°F / 20°C 21°F / -6°C 17% 29.95 in
(1014 mb)
W 16.1 mph
(W 26 kph)
- 10SM
16:56
Clear
73°F / 23°C 21°F / -6°C 14% 29.95 in
(1014 mb)
SSW 19.6 mph
(SSW 32 kph)
- 10SM
15:56
Clear
73°F / 23°C 18°F / -8°C 12% 29.95 in
(1014 mb)
SSE 16.1 mph
(SSE 26 kph)
- 10SM
14:56
Clear
75°F / 24°C 12°F / -11°C 9% 29.95 in
(1014 mb)
SW 16.1 mph
(SW 26 kph)
- 10SM
13:56
Clear
75°F / 24°C 12°F / -11°C 9% 29.95 in
(1014 mb)
SSW 18.4 mph
(SSW 30 kph)
- 10SM
12:56
Clear
73°F / 23°C 12°F / -11°C 9% 29.98 in
(1015 mb)
SW 16.1 mph
(SW 26 kph)
- 10SM
11:56
Clear
70°F / 21°C 18°F / -8°C 13% 29.98 in
(1015 mb)
SW 11.5 mph
(SW 19 kph)
- 10SM
10:56
Clear
70°F / 21°C 19°F / -7°C 15% 30.01 in
(1016 mb)
SSW 18.4 mph
(SSW 30 kph)
- 10SM
09:56
Partly Cloudy
64°F / 18°C 21°F / -6°C 19% 30.01 in
(1016 mb)
Calm - 10SM
08:56
Clear
61°F / 16°C 21°F / -6°C 22% 30.01 in
(1016 mb)
Calm - 10SM
07:56
Clear
54°F / 12°C 25°F / -4°C 33% 30.01 in
(1016 mb)
ENE 3.5 mph
(ENE 6 kph)
- 10SM
06:56
Partly Cloudy
45°F / 7°C 27°F / -3°C 49% 30.01 in
(1016 mb)
NE 3.5 mph
(NE 6 kph)
- 10SM
05:56
Clear
39°F / 4°C 23°F / -5°C 52% 29.98 in
(1015 mb)
Calm - 10SM
04:56
Clear
32°F / 0°C 19°F / -7°C 60% 29.98 in
(1015 mb)
Variable 6.9 mph
(Variable 11 kph)
- 10SM
03:56
Clear
34°F / 1°C 21°F / -6°C 60% 29.98 in
(1015 mb)
SE 8.1 mph
(SE 13 kph)
- 10SM
02:56
Clear
34°F / 1°C 19°F / -7°C 56% 29.98 in
(1015 mb)
SSE 5.8 mph
(SSE 9 kph)
- 10SM
01:56
Clear
45°F / 7°C 21°F / -6°C 39% 29.95 in
(1014 mb)
ENE 8.1 mph
(ENE 13 kph)
- 10SM
00:56
Clear
46°F / 8°C 21°F / -6°C 37% 29.98 in
(1015 mb)
E 9.2 mph
(E 15 kph)
- 10SM
Time Weather Temperature Dewpoint Humidity Pressure Winds Precip Visibility


Weather for websites

WeatherForYou.com, LLC is not responsible for any damages or problems caused by this service. Current weather conditions are obtained from the closest station including government and personal stations which may have varying degrees of accuracy. Weather forecasts are derived from the NOAA NDFD. Like all things, this site belongs to Jesus Christ... He just trusts me to maintain it. If you have any questions or comments email webmaster@weatherforyou.com

Copyright © 2014, WeatherForYou.com LLC. All rights reserved.